Terug naar catalogus

STARLINK-36137

ActiefCommunicatieVLEO
NORAD 67033·PAYLOAD·🇺🇸 United States

Gelanceerd Dec 11, 2025 vanaf Cape Canaveral Space Force Station

Loading…

Volgende Passages (komende 24 uur)

TLE

VersSource: CelesTrak SupGP

Epoch: Sep 15, 2026, 04:10 UTC

1 67033C 25294D   26258.17409722 -.00013947  00000+0 -50500-3 0  2582
2 67033  43.0015  47.6378 0001605 272.1719  37.8485 15.27595504    19

Volg STARLINK-36137 in realtime met AllMySat

Download on the App Store